TimeMDT,TemperatureF,Dew PointF,Humidity,Sea Level PressureIn,VisibilityMPH,Wind Direction,Wind SpeedMPH,Gust SpeedMPH,PrecipitationIn,Events,Conditions,WindDirDegrees,DateUTC
12:56 AM,46.0,32.0,58,29.85,-9999.0,NW,3.5,-,N/A,,Unknown,310,2013-10-09 06:56:00
1:56 AM,48.0,30.9,52,29.86,-9999.0,Calm,Calm,-,N/A,,Unknown,0,2013-10-09 07:56:00
2:56 AM,46.9,30.0,52,29.86,-9999.0,North,9.2,-,N/A,,Unknown,360,2013-10-09 08:56:00
3:56 AM,46.0,30.0,54,29.88,-9999.0,Calm,Calm,-,N/A,,Unknown,0,2013-10-09 09:56:00
4:56 AM,39.0,32.0,76,29.94,-9999.0,West,5.8,-,N/A,,Unknown,280,2013-10-09 10:56:00
5:56 AM,39.9,30.9,70,29.96,-9999.0,WNW,5.8,-,N/A,,Unknown,290,2013-10-09 11:56:00
6:56 AM,44.1,30.0,58,29.96,-9999.0,North,5.8,-,N/A,,Unknown,350,2013-10-09 12:56:00
7:56 AM,44.1,30.9,60,29.98,-9999.0,NE,3.5,-,N/A,,Unknown,50,2013-10-09 13:56:00
8:56 AM,41.0,35.1,79,30.01,-9999.0,Calm,Calm,-,N/A,,Unknown,0,2013-10-09 14:56:00
9:56 AM,50.0,37.0,61,30.02,-9999.0,Calm,Calm,-,N/A,,Unknown,0,2013-10-09 15:56:00
10:56 AM,55.9,33.1,42,30.01,-9999.0,East,10.4,-,N/A,,Unknown,80,2013-10-09 16:56:00
11:56 AM,57.9,33.1,39,30.01,-9999.0,East,9.2,-,N/A,,Unknown,90,2013-10-09 17:56:00
12:56 PM,57.9,33.1,39,30.01,-9999.0,East,10.4,-,N/A,,Unknown,90,2013-10-09 18:56:00
1:56 PM,57.9,30.9,36,30.00,-9999.0,ENE,11.5,-,N/A,,Unknown,70,2013-10-09 19:56:00
2:56 PM,57.0,33.1,40,29.98,-9999.0,East,9.2,-,N/A,,Unknown,80,2013-10-09 20:56:00
3:56 PM,55.9,33.1,42,29.98,-9999.0,East,6.9,-,N/A,,Unknown,100,2013-10-09 21:56:00
4:56 PM,55.9,34.0,44,29.99,-9999.0,ESE,5.8,-,N/A,,Unknown,120,2013-10-09 22:56:00
5:56 PM,54.0,33.1,45,30.00,-9999.0,Calm,Calm,-,N/A,,Unknown,0,2013-10-09 23:56:00
6:56 PM,53.1,33.1,47,29.99,-9999.0,Calm,Calm,-,N/A,,Unknown,0,2013-10-10 00:56:00
7:56 PM,52.0,32.0,47,29.99,-9999.0,Calm,Calm,-,N/A,,Unknown,0,2013-10-10 01:56:00
8:56 PM,46.9,34.0,61,29.99,-9999.0,Calm,Calm,-,N/A,,Unknown,0,2013-10-10 02:56:00
9:56 PM,48.0,32.0,54,29.95,-9999.0,NE,3.5,-,N/A,,Unknown,40,2013-10-10 03:56:00
10:56 PM,43.0,34.0,71,29.94,-9999.0,Calm,Calm,-,N/A,,Unknown,0,2013-10-10 04:56:00
11:56 PM,41.0,33.1,73,29.91,-9999.0,Calm,Calm,-,N/A,,Unknown,0,2013-10-10 05:56:00